EW8051 Weather Reports


Display with metric or nautical units.
time (UTC)temp
F
wind
direction
speed
MPH
gust
MPH
rain 1hr
in
rain 24hr
in
rain mn
in
humidity
%
barometer
mb
20260906100632 59 180 5.0 10.0 0.06 0.79 0.79 81 1005.1
20260906095544 58 193 5.0 11.0 0.06 0.79 0.79 80 1005.2
20260906094607 60 197 9.0 17.0 0.06 0.78 0.78 75 1005.0
20260906093544 60 180 7.0 11.0 0.02 0.73 0.73 75 1004.8
20260906092607 60 180 9.0 14.0 0.07 0.73 0.73 74 1004.8
20260906091544 60 180 8.0 12.0 0.13 0.73 0.73 75 1004.7
20260906090700 60 180 10.0 13.0 0.13 0.73 0.73 80 1004.6
20260906085544 59 180 6.0 8.0 0.13 0.74 0.73 84 1004.5
20260906084609 58 180 3.0 5.0 0.12 0.73 0.72 85 1004.5
20260906083607 58 180 4.0 7.0 0.11 0.72 0.71 81 1004.5
20260906082608 59 180 7.0 11.0 0.06 0.67 0.66 73 1004.6
20260906081544 60 180 9.0 13.0 0.00 0.61 0.60 72 1004.4
20260906080607 60 180 7.0 10.0 0.00 0.61 0.60 72 1004.4
20260906075603 60 183 5.0 8.0 0.00 0.61 0.60 73 1004.3
20260906074607 60 166 5.0 11.0 0.00 0.61 0.60 74 1004.2
20260906073544 60 145 6.0 8.0 0.02 0.61 0.60 76 1004.2
20260906072608 60 180 7.0 11.0 0.02 0.61 0.60 77 1004.2
20260906071651 59 180 7.0 8.0 0.02 0.61 0.60 81 1004.2
20260906070608 59 180 5.0 8.0 0.02 0.61 0.60 83 1004.4
20260906065543 58 180 4.0 6.0 0.02 0.61 0.60 83 1004.4
20260906064608 58 180 5.0 9.0 0.02 0.63 0.60 81 1004.3
20260906063543 59 189 6.0 8.0 0.00 0.61 0.58 79 1004.3
20260906062607 59 180 8.0 10.0 0.00 0.63 0.58 80 1004.2
20260906061604 59 180 7.0 11.0 0.00 0.64 0.58 81 1004.1
20260906060608 58 180 5.0 8.0 0.00 0.65 0.58 82 1004.1
20260906055632 58 180 6.0 10.0 0.00 0.67 0.58 83 1004.1
20260906054628 58 180 8.0 11.0 0.00 0.71 0.58 84 1004.1
20260906053632 58 180 8.0 13.0 0.00 0.74 0.58 86 1004.1
20260906052607 57 180 5.0 8.0 0.00 0.80 0.58 87 1004.0
20260906051544 57 180 6.0 10.0 0.01 0.83 0.58 90 1004.0
20260906050628 57 180 4.0 7.0 0.04 0.87 0.58 93 1004.0
20260906045544 57 180 4.0 6.0 0.07 0.93 0.58 95 1004.0
20260906044628 57 180 3.0 5.0 0.08 0.98 0.58 96 1004.1
20260906043543 56 180 5.0 8.0 0.13 1.02 0.58 96 1004.1
20260906042613 56 186 2.0 4.0 0.15 1.06 0.58 95 1004.1
20260906041544 55 180 3.0 5.0 0.22 1.07 0.57 93 1004.0
20260906040607 56 180 3.0 4.0 0.20 1.05 0.54 92 1003.9
20260906035544 56 180 4.0 5.0 0.17 1.03 0.51 91 1004.0
20260906034607 56 180 4.0 5.0 0.15 1.02 0.50 90 1003.9
20260906033604 56 180 5.0 7.0 0.11 0.97 0.45 88 1003.9
20260906032608 56 180 2.0 4.0 0.08 0.94 0.43 85 1003.8
20260906031631 57 180 4.0 6.0 0.00 0.86 0.34 85 1003.7
20260906030611 56 180 2.0 5.0 0.00 0.86 0.34 84 1003.7
20260906025632 56 180 3.0 5.0 0.00 0.86 0.34 84 1003.6
20260906024628 56 180 2.0 4.0 0.00 0.86 0.34 84 1003.5
20260906023632 56 180 2.0 3.0 0.00 0.86 0.34 84 1003.5
20260906022613 56 180 3.0 5.0 0.00 0.86 0.34 84 1003.5
20260906021631 56 180 2.0 4.0 0.00 0.86 0.34 83 1003.5
20260906020613 56 180 3.0 4.0 0.01 0.86 0.34 84 1003.6
20260906015635 56 180 3.0 4.0 0.01 0.86 0.34 84 1003.6
20260906014608 56 180 2.0 3.0 0.01 0.86 0.34 85 1003.5
20260906013651 56 180 3.0 5.0 0.01 0.86 0.34 86 1003.5
20260906012608 55 180 2.0 4.0 0.01 0.86 0.34 88 1003.5
20260906011632 55 180 2.0 4.0 0.01 0.86 0.34 90 1003.5
20260906010608 55 180 2.0 3.0 0.01 0.85 0.33 90 1003.4
20260906005631 55 180 1.0 3.0 0.02 0.85 0.33 90 1003.3
20260906004608 55 180 0.0 2.0 0.06 0.85 0.33 89 1003.3
20260906003635 54 180 1.0 2.0 0.09 0.85 0.33 92 1003.2
20260906002608 54 180 1.0 2.0 0.11 0.85 0.33 91 1003.2
20260906001720 54 180 2.0 5.0 0.15 0.85 0.33 90 1003.3
20260906000619 54 185 2.0 5.0 0.17 0.84 0.32 89 1003.3
20260905235648 54 173 2.0 5.0 0.18 0.83 0.31 87 1003.2
20260905234611 55 196 4.0 7.0 0.15 0.79 0.27 84 1003.2
20260905233720 55 180 1.0 3.0 0.15 0.76 0.24 84 1002.9
20260905232656 55 180 3.0 5.0 0.22 0.74 0.22 83 1002.9
20260905231652 56 180 4.0 5.0 0.18 0.70 0.18 84 1002.9
20260905230611 56 180 3.0 5.0 0.15 0.67 0.15 85 1002.9
20260905225631 56 180 3.0 5.0 0.13 0.65 0.13 85 1002.8
20260905224609 56 180 2.0 3.0 0.12 0.64 0.12 82 1002.8
20260905223633 57 260 2.0 6.0 0.08 0.60 0.08 80 1002.9
20260905222608 59 169 4.0 7.0 0.00 0.52 0.00 76 1002.8
20260905221632 59 172 7.0 10.0 0.00 0.52 0.00 75 1002.8
20260905220608 60 181 6.0 9.0 0.00 0.52 0.00 75 1002.8
20260905215808 60 180 4.0 8.0 0.00 0.52 0.00 75 1002.7
20260905214628 60 177 4.0 8.0 0.00 0.52 0.00 76 1002.7
20260905213632 60 180 5.0 8.0 0.00 0.52 0.00 77 1002.7
20260905212656 60 180 5.0 5.0 0.00 0.52 0.00 77 1002.7
20260905211829 60 180 6.0 7.0 0.00 0.52 0.00 77 1002.8
20260905211514 60 180 8.0 9.0 0.00 0.52 0.00 75 1002.7